TimeEDT,TemperatureF,Dew PointF,Humidity,Sea Level PressureIn,VisibilityMPH,Wind Direction,Wind SpeedMPH,Gust SpeedMPH,PrecipitationIn,Events,Conditions,WindDirDegrees,DateUTC
12:15 AM,69.8,68.0,94,29.96,4.0,Calm,Calm,-,N/A,,Clear,0,2013-09-02 04:15:00
12:35 AM,69.8,68.0,94,29.95,4.0,Calm,Calm,-,N/A,,Clear,0,2013-09-02 04:35:00
12:55 AM,69.8,68.0,94,29.95,5.0,Calm,Calm,-,N/A,,Clear,0,2013-09-02 04:55:00
1:15 AM,68.0,68.0,100,29.96,5.0,Calm,Calm,-,N/A,,Clear,0,2013-09-02 05:15:00
1:35 AM,68.0,68.0,100,29.96,5.0,Calm,Calm,-,N/A,,Clear,0,2013-09-02 05:35:00
1:55 AM,68.0,68.0,100,29.96,5.0,Calm,Calm,-,N/A,,Clear,0,2013-09-02 05:55:00
2:15 AM,69.8,68.0,94,29.96,7.0,Calm,Calm,-,N/A,,Clear,0,2013-09-02 06:15:00
2:35 AM,69.8,68.0,94,29.96,7.0,Calm,Calm,-,N/A,,Clear,0,2013-09-02 06:35:00
2:55 AM,69.8,69.8,100,29.95,7.0,Calm,Calm,-,N/A,,Clear,0,2013-09-02 06:55:00
3:15 AM,69.8,69.8,100,29.95,7.0,Calm,Calm,-,N/A,,Clear,0,2013-09-02 07:15:00
3:35 AM,71.6,69.8,94,29.94,7.0,Calm,Calm,-,N/A,,Clear,0,2013-09-02 07:35:00
3:55 AM,71.6,69.8,94,29.93,7.0,Calm,Calm,-,N/A,,Scattered Clouds,0,2013-09-02 07:55:00
4:15 AM,71.6,69.8,94,29.93,7.0,Calm,Calm,-,N/A,Thunderstorm,Scattered Clouds,0,2013-09-02 08:15:00
4:35 AM,71.6,69.8,94,29.93,7.0,Calm,Calm,-,N/A,Thunderstorm,Mostly Cloudy,0,2013-09-02 08:35:00
4:55 AM,71.6,69.8,94,29.92,7.0,Calm,Calm,-,N/A,Thunderstorm,Scattered Clouds,0,2013-09-02 08:55:00
5:15 AM,71.6,69.8,94,29.93,7.0,West,3.5,-,N/A,,Clear,260,2013-09-02 09:15:00
5:35 AM,71.6,69.8,94,29.94,7.0,NNW,5.8,-,N/A,Thunderstorm,Scattered Clouds,340,2013-09-02 09:35:00
5:55 AM,71.6,69.8,94,29.95,7.0,Calm,Calm,-,N/A,Thunderstorm,Overcast,0,2013-09-02 09:55:00
6:15 AM,71.6,69.8,94,29.96,10.0,WNW,5.8,-,N/A,Thunderstorm,Overcast,300,2013-09-02 10:15:00
6:35 AM,71.6,69.8,94,29.97,7.0,North,6.9,18.4,N/A,Rain-Thunderstorm,Heavy Thunderstorms and Rain,360,2013-09-02 10:35:00
6:55 AM,69.8,68.0,94,29.97,4.0,North,5.8,-,N/A,Rain-Thunderstorm,Heavy Thunderstorms and Rain,10,2013-09-02 10:55:00
7:15 AM,69.8,68.0,94,29.98,10.0,Calm,Calm,-,N/A,Rain-Thunderstorm,Light Thunderstorms and Rain,0,2013-09-02 11:15:00
7:35 AM,69.8,68.0,94,30.00,10.0,NNW,9.2,19.6,N/A,Rain-Thunderstorm,Light Thunderstorms and Rain,340,2013-09-02 11:35:00
7:55 AM,69.8,68.0,94,30.00,2.0,Calm,Calm,-,N/A,Rain-Thunderstorm,Heavy Thunderstorms and Rain,0,2013-09-02 11:55:00
8:15 AM,68.0,68.0,100,30.02,2.0,NW,6.9,-,N/A,Rain-Thunderstorm,Heavy Thunderstorms and Rain,310,2013-09-02 12:15:00
8:35 AM,68.0,68.0,100,30.02,4.0,North,3.5,-,N/A,Rain-Thunderstorm,Heavy Thunderstorms and Rain,10,2013-09-02 12:35:00
8:55 AM,68.0,68.0,100,30.02,7.0,Calm,Calm,-,N/A,Rain-Thunderstorm,Light Thunderstorms and Rain,0,2013-09-02 12:55:00
9:15 AM,68.0,68.0,100,30.03,5.0,NW,5.8,-,N/A,Rain-Thunderstorm,Thunderstorms and Rain,310,2013-09-02 13:15:00
9:35 AM,68.0,68.0,100,30.02,7.0,NW,5.8,-,N/A,Rain,Rain,320,2013-09-02 13:35:00
9:55 AM,68.0,68.0,100,30.02,7.0,WNW,8.1,-,N/A,Rain,Light Rain,300,2013-09-02 13:55:00
10:15 AM,68.0,68.0,100,30.03,10.0,WNW,5.8,-,N/A,Rain,Light Rain,300,2013-09-02 14:15:00
10:35 AM,69.8,68.0,94,30.03,10.0,WNW,4.6,-,N/A,Rain,Rain,300,2013-09-02 14:35:00
10:55 AM,69.8,68.0,94,30.03,10.0,WNW,3.5,-,N/A,Rain,Light Rain,300,2013-09-02 14:55:00
11:15 AM,69.8,68.0,94,30.03,10.0,West,4.6,-,N/A,Rain,Light Rain,270,2013-09-02 15:15:00
11:35 AM,69.8,68.0,94,30.03,10.0,NW,4.6,-,N/A,Rain,Light Rain,310,2013-09-02 15:35:00
11:55 AM,69.8,69.8,100,30.03,10.0,Calm,Calm,-,N/A,Rain,Light Rain,0,2013-09-02 15:55:00
12:15 PM,71.6,69.8,94,30.03,10.0,NW,4.6,-,N/A,,Mostly Cloudy,310,2013-09-02 16:15:00
12:35 PM,71.6,69.8,94,30.01,10.0,Calm,Calm,-,N/A,,Scattered Clouds,0,2013-09-02 16:35:00
12:55 PM,77.0,69.8,78,30.00,10.0,WNW,6.9,-,N/A,,Clear,300,2013-09-02 16:55:00
1:15 PM,77.0,69.8,78,30.00,10.0,WNW,5.8,-,N/A,,Scattered Clouds,300,2013-09-02 17:15:00
1:35 PM,78.8,69.8,74,29.99,10.0,North,3.5,-,N/A,,Scattered Clouds,350,2013-09-02 17:35:00
1:55 PM,78.8,66.2,65,29.99,10.0,NNW,4.6,-,N/A,,Clear,330,2013-09-02 17:55:00
2:15 PM,78.8,68.0,69,29.99,10.0,Calm,Calm,-,N/A,,Clear,0,2013-09-02 18:15:00
2:35 PM,78.8,68.0,69,29.98,10.0,Calm,Calm,-,N/A,,Clear,0,2013-09-02 18:35:00
2:55 PM,78.8,68.0,69,29.98,10.0,Calm,Calm,-,N/A,,Clear,0,2013-09-02 18:55:00
3:15 PM,78.8,68.0,69,29.98,10.0,Calm,Calm,-,N/A,,Clear,0,2013-09-02 19:15:00
3:35 PM,78.8,68.0,69,29.97,10.0,Calm,Calm,-,N/A,,Clear,0,2013-09-02 19:35:00
3:55 PM,82.4,68.0,62,29.96,10.0,Calm,Calm,-,N/A,,Clear,0,2013-09-02 19:55:00
4:15 PM,82.4,69.8,66,29.95,10.0,West,3.5,-,N/A,,Clear,260,2013-09-02 20:15:00
4:35 PM,82.4,69.8,66,29.94,10.0,Calm,Calm,-,N/A,,Clear,0,2013-09-02 20:35:00
4:55 PM,82.4,69.8,66,29.94,10.0,Calm,Calm,-,N/A,,Clear,0,2013-09-02 20:55:00
5:15 PM,82.4,68.0,62,29.93,10.0,Calm,Calm,-,N/A,,Clear,0,2013-09-02 21:15:00
5:35 PM,82.4,69.8,66,29.93,10.0,Calm,Calm,-,N/A,,Scattered Clouds,0,2013-09-02 21:35:00
5:55 PM,82.4,69.8,66,29.93,10.0,SSW,3.5,-,N/A,,Scattered Clouds,210,2013-09-02 21:55:00
6:15 PM,80.6,71.6,74,29.93,10.0,Calm,Calm,-,N/A,,Clear,0,2013-09-02 22:15:00
6:35 PM,82.4,69.8,66,29.94,10.0,Calm,Calm,-,N/A,,Clear,0,2013-09-02 22:35:00
6:55 PM,80.6,69.8,70,29.94,10.0,Calm,Calm,-,N/A,,Clear,0,2013-09-02 22:55:00
7:15 PM,80.6,69.8,70,29.94,10.0,Calm,Calm,-,N/A,,Scattered Clouds,0,2013-09-02 23:15:00
7:35 PM,78.8,71.6,78,29.94,10.0,Calm,Calm,-,N/A,,Scattered Clouds,0,2013-09-02 23:35:00
7:55 PM,77.0,71.6,83,29.95,10.0,Calm,Calm,-,N/A,,Scattered Clouds,0,2013-09-02 23:55:00
8:15 PM,77.0,71.6,83,29.95,10.0,Calm,Calm,-,N/A,,Clear,0,2013-09-03 00:15:00
8:35 PM,73.4,71.6,94,29.95,10.0,Calm,Calm,-,N/A,,Clear,0,2013-09-03 00:35:00
8:55 PM,75.2,71.6,89,29.95,10.0,Calm,Calm,-,N/A,,Clear,0,2013-09-03 00:55:00
9:15 PM,73.4,71.6,94,29.96,10.0,Calm,Calm,-,N/A,,Clear,0,2013-09-03 01:15:00
9:35 PM,73.4,71.6,94,29.96,10.0,Calm,Calm,-,N/A,,Clear,0,2013-09-03 01:35:00
9:55 PM,73.4,71.6,94,29.96,10.0,Calm,Calm,-,N/A,,Clear,0,2013-09-03 01:55:00
10:15 PM,73.4,69.8,88,29.96,10.0,Calm,Calm,-,N/A,,Clear,0,2013-09-03 02:15:00
10:35 PM,71.6,71.6,100,29.97,10.0,Calm,Calm,-,N/A,,Clear,0,2013-09-03 02:35:00
10:55 PM,71.6,69.8,94,29.97,10.0,Calm,Calm,-,N/A,,Clear,0,2013-09-03 02:55:00
11:15 PM,71.6,69.8,94,29.97,10.0,Calm,Calm,-,N/A,,Clear,0,2013-09-03 03:15:00
11:35 PM,71.6,69.8,94,29.97,10.0,Calm,Calm,-,N/A,,Clear,0,2013-09-03 03:35:00
11:55 PM,71.6,69.8,94,29.96,10.0,Calm,Calm,-,N/A,,Clear,0,2013-09-03 03:55:00